Showing default

GALILEO 20 (2C6), 43056

Orbit data source: Space-Track

GALILEO 20 (2C6), 43056 is a payload satellite owned by GNSS Agency (ESA) that was launched on Tue, 12 Dec 2017 UTC via an ARIANE 5ES launch vehicle from the French Guiana (FRGUI). Payload-class satellites include a variety of spacecraft equipped with specific instruments for various scientific and technological missions. These include communications satellites like Starlink; space stations such as the ISS; scientific satellites like the Hubble; Earth observation satellites from companies like Planet Labs, Umbra, and HawkEye 360; GPS; miniature CubeSats for education and research; and military/defense satellites.

Loading next visibility...
Identifier
43056, 2017-079B
Orbit
Active
Country
Flag of ESAESA
Related business
Manufacturer
OHB
Mission
Operational Civil Navigation
Bus & Motor
GALILEOSAT, AOCS
Mass
715 kg wet, 700 kg dry
Launch date (UTC)
2017-12-12 (8 years ago)
Launch vehicle
ARIANE 5ES
Launch site
French Guiana (FRGUI)
Object type
Payload
Rocket body
Debris
Shape & HBR
Box + 2 Pan, 7.4 m
Radar Cross Section
9.223 m², Large (>1 m²)

Expand to show TLE details & history
Last TLE update: 1 day ago

TLE from 1 day ago
0 GALILEO 20 (2C6)
1 43056U 17079B   25257.02645767  .00000035  00000-0  00000-0 0  9998
2 43056  55.1655 229.1040 0004547 280.5552  79.3681  1.70473952 48297
Epoch: 2025-09-14T00:38Z
TLE epoch observation values (Epoch: 2025-09-14T00:38:05.942Z)
Latitude
0.00001°
Longitude
-133.68019°
Altitude
23,219.984 km
Speed
3.67 km/s
True Right ascension
15h 16m 23s
True Declination
0° 00' 00"
Sunlit
Object was in daylight at epoch
Visualization orbit readout
Latitude
Unknown
Longitude
Unknown
Altitude
Unknown
Speed
Unknown
Apparent Right ascension
Unknown
Apparent Declination
Unknown
Sunlit
N/A
Visualization observer readout
Local Sidereal Time
21:36:01
Azimuth
Unknown
Elevation
Unknown
Doppler factor
Unknown
Orbital elements
Apogee altitude
23,235.65 km
Perigee altitude
23,208.732 km
Semi-major axis
29,600.328 km
Eccentricity
0.00045
Inclination
55.1655°
RAAN
229.104°
Arg. of periapsis
280.5552°
True anomaly
79.41932°
Mean anomaly
79.3681°
Eccentric anomaly
79.39371°
Mean motion
0.42619 °/min
Orbital period
844.7 mins
BSTAR
0
Loading maneuver chart data...
Computing Atmospheric mass density...
Loading historical data...
Loading historical data...
Loading historical data...
Loading historical data...
Loading historical data...
Loading historical data...
Loading historical data...
Other satellites on launch #79 in the year 2017 (2017-12-12 UTC)

Documentation

Showing up to 5 results
|